Location: Unspecified
(35.7250°N, 0.0000°E)
Time: 11:02:12
(UTC+00:00)

Vanguard 1 Rocket - Pass Details

Date: 21 June 2019
Orbit: 651 x 4225 km, 34.3° (Epoch: 22 July)

Event Time Altitude Azimuth Distance (km) Brightness Sun altitude
Rises 13:38:01 0° 201° (SSW) 8,458 12.6 65.8°
Reaches altitude 10° 13:46:01 10° 190° (S) 7,300 12.3 64.3°
Maximum altitude 14:03:09 25° 145° (SE) 5,149 11.4 61.1°
Drops below altitude 10° 14:15:15 10° 97° (E) 5,174 11.1 58.7°
Sets 14:19:26 0° 85° (E) 5,683 11.1 57.9°
